Probability
0 0 0 0 0 0 0 0 0 0 0 0 0 0 0 0 0 0 0 0 0 0 0 0 0 0 0 0 0 0 0 0 0 0 0 0 0 0 0 0 0 0 0 0
0 0 0 0 0 0 0 0 0 0 0 0 0 0 0 0 0 0 0 0 0 0 0 0 0 0 0 0 0 0 0 0 0 0 0 0 0 0 0 0 0 0 0 0
0 0 0 0 0 0 0 0 0 0 0 0 0 0 0 0 0 0 0 0 0 0 0 0 0 0 0 0 0 0 0 0 0 0 0 0 0 0 0 0 0 0 0 0
0 0 0 0 0 0 0 0 0 0 0 0 0 0 0 0 0 0 0 0 0 0 0 0 0 0 0 0 0 0 0 0 0 0 0 0 0 0 0 0 0 0 0 0
0 0 0 0 0 0 0 0 0 0 0 0 0 0 0 0 0 0 0 0 0 0 0 0 0 0 0 0 0 0 0 0 0 0 0 0 0 0 0 0 0 0 0 0
0 0 0 0 0 0 0 0 0 0 0 0 0 0 0 0 0 0 0 0 0 0 0 0 0 0 0 0 0 0 0 0 0 0 0 0 0 0 0 0 0 0 0 0
0 0 0 0 0 0 0 0 0 0 0 0 0 0 0 0 0 0 0 0 0 0 0 0 0 0 0 0 0 0 0 0 0 0 0 0 0 0 0 0 0 0 0 0
0 0 0 0 0 0 0 0 0 0 0 0 0 0 0 0 0 0 0 0 0 0 0 0 0 0 0 0 0 0 0 0 0 0 0 0 0 0 0 0 0 0 0 0
0 0 0 0 0 0 0 0 0 0 0 0 0 0 0 0 0 0 0 0 0 0 0 0 0 0 0 0 0 0 0 0 0 0 0 0 0 0 0 0 0 0 0 0
0 0 0 0 0 0 0 0 0 0 0 0 0 0 0 0 0 0 0 0 0 0 0 0 0 0 0 0 0 0 0 0 0 0 0 0 0 0 0 0 0 0 0 0
0 0 0 0 0 0 0 0 0 0 0 0 0 0 0 0 0 0 0 0 0 0 0 0 0 0 0 0 0 0 0 0 0 0 0 0 0 0 0 0 0 0 0 0
0 0 0 0 0 0 0 0 0 0 0 0 0 0 0 0 0 0 0 0 0 0 0 0 0 0 0 0 0 0 0 0 0 0 0 0 0 0 0 0 0 0 0 0
0 0 0 0 0 0 0 0 0 0 0 0 0 0 0 0 0 0 0 0 0 0 0 0 0 0 0 0 0 0 0 0 0 0 0 0 0 0 0 0 0 0 0 0
0 0 0 0 0 0 0 0 0 0 0 0 0 0 0 0 0 0 0 0 0 0 0 0 0 0 0 0 0 0 0 0 0 0 0 0 0 0 0 0 0 0 0 0
0 0 0 0 0 0 0 0 0 0 0 0 0 0 0 0 0 0 0 0 0 0 0 0 0 0 0 0 0 0 0 0 0 0 0 0 0 0 0 0 0 0 0 0
0 0 0 0 0 0 0 0 0 0 0 0 0 0 0 0 0 0 0 0 0 0 0 0 0 0 0 0 0 0 0 0 0 0 0 0 0 0 0 0 0 0 0 0
0 0 0 0 0 0 0 0 0 0 0 0 0 0 0 0 0 0 0 0 0 0 0 0 0 0 0 0 0 0 0 0 0 0 0 0 0 0 0 0 0 0 0 0
0 0 0 0 0 0 0 0 0 0 0 0 0 0 0 0 0 0 0 0 0 0 0 0 0 0 0 0 0 0 0 0 0 0 0 0 0 0 0 0 0 0 0 0
0 0 0 0 0 0 0 0 0 0 0 0 0 0 0 0 0 0 0 0 0 0 0 0 0 0 0 0 0 0 0 0 0 0 0 0 0 0 0 0 0 0 0 0
0 0 0 0 0 0 0 0 0 0 0 0 0 0 0 0 0 0 0 0 0 0 0 0 0 0 0 0 0 0 0 0 0 0 0 0 0 0 0 0 0 0 0 0
0 0 0 0 0 0 0 0 0 0 0 0 0 0 0 0 0 0 0 0 0 0 0 0 0 0 0 0 0 0 0 0 0 0 0 0 0 0 0 0 0 0 0 0
0 0 0 0 0 0 0 0 0 0 0 0 0 0 0 0 0 0 0 0 0 0 0 0 0 0 0 0 0 0 0 0 0 0 0 0 0 0 0 0 0 0 0 0
0 0 0 0 0 0 0 0 0 0 0 0 0 0 0 0 0 0 0 0 0 0 0 0 0 0 0 0 0 0 0 0 0 0 0 0 0 0 0 0 0 0 0 0
0 0 0 0 0 0 0 0 0 0 0 0 0 0 0 0 0 0 0 0 0 0 0 0 0 0 0 0 0 0 0 0 0 0 0 0 0 0 0 0 0 0 0 0
0 0 0 0 0 0 0 0 0 0 0 0 0 0 0 0 0 0 0 0 0 0 0 0 0 0 0 0 0 0 0 0 0 0 0 0 0 0 0 0 0 0 0 0
0 0 0 0 0 0 0 0 0 0 0 0 0 0 0 0 0 0 0 0 0 0 0 0 0 0 0 0 0 0 0 0 0 0 0 0 0 0 0 0 0 0 0 0
0 0 0 0 0 0 0 0 0 0 0 0 0 0 0 0 0 0 0 0 0 0 0 0 0 0 0 0 0 0 0 0 0 0 0 0 0 0 0 0 0 0 0 0
Wind_Speed
6 6 5 6 7 7 7 8 8 7 6 8 9 9 8 7 7 6 6 6 7 7 6 6 5 5 5 5 4 4 4 3 3 2 2 1 1 2 2 3 3 3 3 4
3 3 4 4 8 9 8 7 7 5 6 7 6 5 5 6 8 7 7 7 8 7 6 6 6 6 6 6 5 4 5 4 4 3 2 1 1 1 2 3 3 3 3 3
3 4 2 6 10 11 8 7 9 9 9 5 5 7 8 8 8 8 8 7 7 7 7 7 7 7 7 7 5 5 5 4 4 3 2 2 2 1 2 3 2 3 3 3
1 1 5 11 6 8 9 8 8 7 7 9 9 8 7 7 8 7 7 6 6 6 6 6 5 6 5 5 5 5 4 4 4 4 3 3 2 2 3 2 2 3 3 3
3 2 7 9 5 7 7 7 8 9 8 7 5 4 1 4 7 8 7 6 5 5 5 5 5 5 5 4 4 4 4 4 5 5 4 3 3 4 3 2 3 3 3 4
4 2 6 9 6 3 5 4 5 9 9 8 8 4 5 4 5 6 5 5 5 4 4 4 4 5 6 4 4 5 5 5 5 5 5 5 5 4 3 3 3 4 4 4
4 4 9 9 3 5 4 9 4 8 9 9 9 8 6 6 5 6 5 5 6 6 4 4 4 5 5 4 5 6 5 4 4 4 5 5 4 3 3 3 3 4 4 5
5 4 10 6 4 7 9 4 3 6 7 8 7 5 6 7 7 7 6 5 6 5 4 3 4 5 4 3 4 4 4 4 4 4 4 3 4 4 3 3 3 4 4 5
11 11 9 6 8 7 6 5 5 7 7 9 8 7 7 7 7 6 6 5 4 5 4 2 2 4 3 2 2 2 2 3 4 4 4 3 4 4 3 2 3 3 3 4
4 8 7 5 5 4 6 7 7 7 8 9 9 9 8 7 6 6 5 5 5 6 5 2 1 1 1 1 1 2 1 2 3 3 4 3 3 3 3 3 3 3 3 4
5 6 4 5 6 7 6 5 6 6 7 10 10 9 8 7 7 6 5 4 5 6 5 3 3 3 2 1 2 1 0 1 2 2 3 3 3 3 4 4 4 4 4 4
8 9 7 9 10 8 8 8 9 8 7 7 9 10 8 7 6 6 6 5 6 6 5 4 4 4 3 2 2 3 2 2 2 2 2 2 3 4 4 4 6 5 5 4
10 9 9 9 8 9 10 10 10 10 10 8 7 8 9 7 6 6 7 7 8 7 6 5 5 5 4 4 4 4 3 2 2 2 2 2 2 2 4 5 7 8 9 9
7 5 5 6 8 10 10 9 8 7 7 8 8 8 9 7 7 8 8 7 8 8 7 6 6 5 4 4 5 5 4 5 4 3 3 3 3 3 3 3 5 6 7 12
10 8 9 7 6 6 7 8 8 8 8 7 8 9 10 10 9 8 8 8 9 8 7 6 7 5 4 5 6 5 4 3 3 3 4 4 4 4 4 5 5 5 6 8
9 6 4 5 7 8 8 9 11 11 10 9 9 9 10 10 10 9 8 9 10 8 6 7 6 3 4 5 6 5 4 8 7 4 4 5 5 5 5 5 5 6 7 7
5 5 5 6 7 8 11 11 12 12 10 10 11 11 12 12 11 9 8 8 9 7 6 6 5 4 5 5 5 4 4 5 9 6 4 4 4 5 4 5 5 5 5 8
7 10 9 10 11 10 10 8 9 11 11 11 13 13 13 13 12 11 10 9 9 7 5 5 5 5 5 5 4 3 3 4 4 4 4 4 4 4 4 4 5 5 4 5
6 6 7 8 8 9 9 10 11 11 11 13 14 13 11 11 11 11 10 9 9 7 3 4 9 6 5 5 6 4 4 4 4 4 3 5 5 4 4 4 4 4 4 4
5 4 4 5 5 6 7 8 10 10 11 13 13 12 11 11 11 11 9 7 4 5 5 5 6 4 3 4 6 3 3 3 3 3 3 3 3 3 3 3 3 3 3 3
5 2 1 3 4 5 7 10 11 11 11 12 13 13 12 11 11 10 9 6 3 5 6 8 5 3 2 3 5 3 3 3 2 2 2 2 2 2 2 3 3 3 3 3
6 4 3 4 6 5 5 7 9 11 11 10 11 12 13 11 9 8 7 6 6 8 5 4 3 4 4 5 3 2 2 2 2 2 2 1 1 1 1 2 2 2 2 2
5 4 4 4 5 6 6 6 8 10 11 11 12 12 11 9 8 8 6 4 5 9 6 3 5 6 6 4 2 2 2 2 2 1 1 1 1 1 0 1 1 1 2 2
3 3 3 3 5 6 6 5 5 6 7 8 8 10 11 8 5 4 5 10 11 9 5 5 6 6 5 3 2 2 2 1 1 1 1 1 1 0 0 0 1 2 2 3
1 1 2 3 4 3 4 5 6 7 7 6 6 7 7 6 6 6 5 7 10 9 4 5 6 5 3 2 2 2 2 2 2 2 2 1 1 1 1 1 1 2 2 2
2 2 2 3 3 4 4 5 5 4 5 5 4 4 5 5 6 6 5 6 7 8 5 3 2 2 2 2 3 3 2 2 1 2 2 2 1 1 1 1 2 2 2 2
2 1 1 1 2 3 4 5 5 5 5 6 5 4 5 6 6 6 6 5 4 4 3 3 3 3 3 3 2 2 2 2 2 2 2 2 1 1 1 2 1 2 2 3
Wind_Direction
227 230 195 205 205 187 176 183 186 222 217 227 214 209 208 201 194 191 196 197 197 202 212 215 212 209 204 206 202 188 181 192 213 223 228 270 323 325 328 342 345 339 344 344
294 254 218 222 217 202 203 198 204 212 242 236 212 191 190 190 187 193 201 202 202 203 203 205 203 202 199 205 203 184 185 203 213 214 225 254 281 301 324 335 335 337 335 334
269 294 349 263 223 201 205 204 187 210 225 198 180 193 196 194 191 196 200 198 196 198 200 201 200 195 195 201 191 183 194 207 208 208 218 241 259 288 305 309 314 316 315 324
213 48 234 245 240 193 199 217 196 197 198 188 193 198 196 184 180 189 190 189 193 195 198 201 197 195 192 183 177 184 197 209 211 208 219 232 246 267 278 281 285 289 294 303
136 219 276 288 265 178 175 237 207 189 191 189 158 101 334 202 176 181 183 181 185 185 181 180 183 179 158 163 174 183 202 213 216 210 215 225 241 255 259 264 277 276 279 287
133 186 248 257 269 174 111 263 236 182 178 166 133 142 238 215 167 163 160 159 157 150 142 154 173 154 142 158 171 199 212 215 215 210 211 222 235 245 246 244 261 279 286 281
167 213 263 257 258 98 140 239 236 178 172 164 174 193 195 169 157 156 154 154 145 136 141 167 166 148 148 161 200 218 212 208 213 217 220 227 236 241 247 257 278 290 291 289
158 193 254 245 157 180 213 226 171 163 164 163 170 159 151 155 156 155 152 151 143 136 144 157 154 147 153 195 228 221 206 212 229 235 236 230 230 250 252 255 275 288 296 299
185 210 232 212 202 212 179 174 176 162 164 150 149 159 162 162 162 161 159 158 147 139 132 118 135 140 154 231 229 198 203 236 254 263 261 251 237 249 258 250 251 270 275 282
237 260 254 235 218 195 183 183 180 168 161 156 159 164 162 161 163 159 155 152 141 131 129 125 106 111 170 254 185 150 195 260 278 287 293 288 263 246 243 249 250 260 262 264
252 271 292 274 235 208 189 170 159 158 164 165 158 163 165 163 163 160 155 150 137 135 132 119 89 65 30 29 97 109 28 326 316 306 302 306 297 262 245 241 229 234 248 244
234 231 205 232 230 207 184 184 177 165 164 167 163 163 160 160 160 152 148 140 129 127 123 112 88 62 29 26 73 88 59 12 348 332 326 323 318 320 302 288 312 301 287 279
231 236 219 235 227 204 195 192 182 173 168 165 161 153 148 149 151 141 135 133 134 130 122 109 89 64 32 30 63 75 64 28 8 7 4 358 359 358 347 352 12 18 8 359
242 227 232 225 217 205 194 185 171 164 163 157 151 144 139 135 136 135 136 136 129 121 114 104 87 62 29 41 60 60 54 44 44 29 21 20 19 19 23 22 15 6 4 11
254 229 224 223 211 192 173 155 154 161 158 152 149 147 144 141 140 137 131 124 116 108 104 99 87 61 35 53 63 57 52 45 43 39 36 35 34 37 40 41 37 22 14 13
248 243 217 200 194 184 169 168 172 175 166 157 154 151 144 135 128 125 124 124 118 114 110 101 91 73 56 61 64 55 49 58 65 55 45 43 43 46 44 44 41 36 30 19
223 222 211 208 202 195 192 188 184 175 166 158 153 143 134 128 124 123 120 116 114 113 110 106 100 80 65 65 70 65 55 55 61 59 52 50 50 48 47 48 46 43 35 28
221 213 202 198 198 202 201 187 172 165 161 155 146 143 143 142 141 139 133 123 110 98 94 106 103 85 66 61 70 69 69 64 60 61 56 55 54 49 51 53 50 49 35 32
248 234 220 211 201 193 186 177 170 162 152 148 148 148 145 142 140 139 135 128 124 121 123 113 106 90 72 65 80 75 77 74 69 63 63 62 58 49 49 49 45 41 38 32
290 261 222 202 177 164 163 157 150 148 149 145 140 137 137 140 140 138 131 127 141 150 149 127 108 97 81 75 83 81 81 83 81 73 67 63 60 51 46 45 42 37 34 30
347 354 98 134 135 136 143 143 143 144 144 144 144 145 143 141 140 138 134 132 157 149 138 128 120 120 107 101 87 87 86 89 91 88 80 73 66 58 50 44 37 32 27 18
4 27 61 96 107 108 117 128 133 135 135 135 136 138 138 139 139 134 139 150 162 151 137 133 142 142 129 106 95 92 95 101 106 106 97 85 77 67 50 35 22 10 1 351
12 34 57 84 108 110 102 111 125 133 138 141 144 146 146 146 147 144 149 165 156 153 145 158 169 150 125 107 108 108 112 120 130 139 133 114 104 97 61 13 347 337 330 327
10 39 58 78 95 105 110 113 114 120 127 132 139 142 140 137 135 146 146 161 165 157 158 181 180 159 132 125 129 138 146 154 164 166 148 133 142 174 226 272 298 307 311 318
325 62 110 119 123 135 136 126 115 116 119 123 133 140 142 144 147 154 151 158 167 162 169 190 184 167 147 150 162 173 185 192 183 174 170 176 201 226 246 263 283 297 304 304
270 226 198 184 170 160 151 141 138 140 136 134 137 141 138 136 140 145 150 162 171 172 176 193 192 171 169 180 188 190 191 194 181 170 182 190 204 215 239 265 293 296 299 302
273 238 175 149 158 159 154 152 153 157 156 152 151 154 150 148 149 157 161 164 169 172 177 183 182 178 180 187 194 196 195 198 198 193 196 200 203 215 240 263 274 287 296 299